Powrót do katalogu

FREGAT DEB

AktywnyUNKNOWN
NORAD 45829·DEBRIS·🇷🇺 Russia

Wystrzelony Jul 18, 2011 z Baikonur Cosmodrome

Loading…

Następne Przeloty (najbliższe 24 godziny)

TLE

ŚwieżeSource: Space-Track

Epoka: Sep 13, 2026, 01:38 UTC

1 45829U 11037BP  26256.06809020  .00037124  00000-0  23763-2 0  9996
2 45829  51.4063 263.4858 1219747 354.4818   4.3587 12.93789467274364

Śledź FREGAT DEB w czasie rzeczywistym z AllMySat

Download on the App Store